Home   Weather   Nanjing   Past weeks

Flag for China Past Weather in Nanjing, Jiangsu, China — Yesterday and Last 2 Weeks

Now
99 °F

Passing clouds.


Feels Like: 118 °F
Forecast: 84 / 105 °F
Wind: 3 mph from North

Location: Nanjing

Current Time: Jul 23, 2017 at 1:03:05 pm

Latest Report: Jul 23, 2017 at 12:00 pm


Visibility: N/A

Pressure: 29.71 "Hg

Humidity: 53%

Dew Point: 79 °F

Location of NanjingLocation

Past Weather in Nanjing — Graph

°F

Nanjing Temperature Yesterday

Maximum temperature yesterday: 102 °F (at 2:00 pm)
Minimum temperature yesterday: 82 °F (at 4:00 am)
Average temperature yesterday: 92 °F

High & Low Weather Summary for the Past Weeks

 TemperatureHumidityPressure
High102 °F (Jul 22, 2:00 pm)100% (Jul 10, 5:00 am)29.86 "Hg (Jul 10, 5:00 am)
Low73 °F (Jul 10, 5:00 am)42% (Jul 21, 1:00 pm)29.50 "Hg (Jul 10, 2:00 am)
Average88 °F73%29.73 "Hg
* Reported Jul 8 11:00 am — Jul 23 11:00 am, Nanjing. Weather by CustomWeather, © 2017

Note: Actual official high and low records may vary slightly from our data, if they occured in-between our weather recording intervals... More about our weather records

Advertising

Nanjing Weather History for the Previous 24 Hours

Scroll right to see more
 ConditionsComfort  
Time TempWeatherWind HumidityBarometerVisibility
11:00 am
Sun, Jul 23
100 °FSunny.6 mph45%29.74 "Hg10 mi
10:00 am99 °FSunny.3 mph47%29.74 "Hg10 mi
9:00 am95 °FSunny.1 mph56%29.74 "Hg10 mi
8:00 am93 °FSunny.1 mph67%29.74 "Hg10 mi
7:00 am88 °FClear.1 mph79%29.74 "Hg5 mi
6:00 am82 °FClear.No wind94%29.74 "Hg4 mi
5:00 am82 °FClear.1 mph94%29.74 "Hg4 mi
4:00 am82 °FClear.1 mph94%29.74 "Hg4 mi
3:00 am82 °FClear.1 mph94%29.71 "Hg5 mi
2:00 am84 °FClear.No wind89%29.74 "Hg5 mi
1:00 am82 °FClear.1 mph94%29.74 "Hg10 mi
12:00 am86 °FClear.1 mph89%29.77 "Hg10 mi
11:00 pm
Sat, Jul 22
86 °FClear.1 mph84%29.77 "Hg10 mi
10:00 pm86 °FClear.1 mph84%29.77 "Hg10 mi
9:00 pm88 °FClear.1 mph79%29.77 "Hg10 mi
8:00 pm91 °FClear.3 mph67%29.77 "Hg10 mi
7:00 pm95 °FSunny.6 mph56%29.74 "Hg10 mi
6:00 pm99 °FSunny.6 mph50%29.74 "Hg10 mi
5:00 pm100 °FPassing clouds.6 mph45%29.74 "HgN/A
4:00 pm102 °FPassing clouds.8 mph45%29.74 "HgN/A
3:00 pm102 °FPassing clouds.6 mph45%29.77 "HgN/A
2:00 pm102 °FPassing clouds.6 mph45%29.77 "HgN/A
1:00 pm100 °FSunny.6 mph47%29.77 "Hg10 mi
Weather by CustomWeather, © 2017

See weather overviewHow to use our weather pages